COSMOS 2251 DEB

Satellite information

Favourite Embed

Satellite Type and Status

DEBRISIN ORBIT

Key statistics

Satellite COSMOS 2251 DEB at a glance.

Uptime

11822

Days in orbit

Revolutions

≈ 14.6

Per day

Orbit

LEO

Low Earth Orbit

Inclination

74.0

Latest

Satellite identification and parameters

Extended collection of information and parameters for COSMOS 2251 DEB.

Object identification

Identified? True

Debris? True

Object name: COSMOS 2251 DEB

International designator: 1993-036YA

Object number (NORAD): 34680

Object ID (CCSDS): 34680

Country: COMMONWEALTH OF INDEPENDENT STATES (CIS)

Current information (Y/N): Y

RCS size: SMALL

Orbital parameters

Period: 98.634 minutes

Inclination: 74.0443 deg

SMA: 7071.506 km

Apoapsis: 699.057 km

Periapsis: 687.684 km

RAAN: 221.2062 deg

Eccentricy: 0.00080411

Argument of periapsis: 309.0524 deg

Mean anomaly: 119.911 deg

Mean motion: 14.59939729 rev/day

Mean motion (dot): 0.00006435 rev/day2

B* drag term: 0.0013469081 1/REarth

Two-line elements (TLE)

Creation date: Oct. 26, 2025, 2:54 a.m.

Reference frame: TEME

Reference center: EARTH

Epoch: Oct. 25, 2025, 8:44 p.m. UTC

TLE line 0: 0 COSMOS 2251 DEB

TLE line 1: 1 34680U 93036YA 25298.86410103 .00006435 00000-0 13469-2 0 9994

TLE line 2: 2 34680 74.0443 221.2062 0008041 309.0524 119.9110 14.59939729876298

Live tracking on map

Real-time ground track for satellite COSMOS 2251 DEB.

In-orbit conjunctions

A list of the most updated potential collisions computed for object COSMOS 2251 DEB.

Target Orbit TCA Probability of collision Miss distance Type
ATLAS 5 CENTAUR R/B SSO 2025-04-01 16:27:58 0.001272788 19.0 (m) ROCKET BODY
CZ-4 DEB SSO 2024-07-04 04:13:05 0.0001120955 170.0 (m) DEBRIS

Associated space launch

Military communications satellite. Destroyed in a collision with Iridium 33.

COSMOS 2251 DEB was lifted into orbit during the mission ‘Kosmos-3M | Strela-2M 51’, on board a Kosmos-3M space rocket.

The launch took place on June 16, 1993, 4:17 a.m. from 132/1 (132L).

For more information about the launch, click the button.

Launch to space Kosmos-3M | Strela-2M 51
Kosmos-3M | Strela-2M 51

Agency: N/A

Status: Launch Successful

Launch date: June 16, 1993, 4:17 a.m. UTC

Rocket: Kosmos-3M

Launch pad: 132/1 (132L)

Location: Plesetsk Cosmodrome, Russian Federation

...

Latest news about this satellite

There are no fresh news available about this satellite. Check back as we update our databases every day.


Newsletter sign-up

Weekly statistics, charts and insights to help you stay on top of the space industry.